EW5738 Weather Reports


Display with metric or nautical units.
time (UTC)temp
F
wind
direction
speed
MPH
gust
MPH
rain 1hr
in
rain 24hr
in
rain mn
in
humidity
%
barometer
mb
20260905040036 82 345 1.0 8.0 0.00 0.00 0.00 59 1016.9
20260905034538 83 1 1.0 6.0 0.00 0.00 0.00 57 1017.1
20260905033032 82 340 2.0 10.0 0.00 0.00 0.00 55 1017.3
20260905031526 82 32 2.0 6.0 0.00 0.00 0.00 58 1017.7
20260905030029 83 347 2.0 8.0 0.00 0.00 0.00 58 1018.0
20260905024521 82 20 2.0 7.0 0.00 0.00 0.00 56 1018.3
20260905023027 81 114 4.0 8.0 0.00 0.00 0.00 60 1018.8
20260905021514 80 349 3.0 8.0 0.00 0.00 0.00 62 1019.0
20260905020014 79 1 3.0 6.0 0.00 0.00 0.00 65 1019.3
20260905014508 79 9 4.0 9.0 0.00 0.00 0.00 68 1019.8
20260905013004 78 314 1.0 7.0 0.00 0.00 0.00 68 1020.2
20260905011608 78 351 4.0 7.0 0.00 0.00 0.00 69 1020.6
20260905010109 77 290 1.0 6.0 0.00 0.00 0.00 70 1020.7
20260905004553 76 1 2.0 6.0 0.00 0.00 0.00 71 1021.0
20260905003049 75 295 1.0 5.0 0.00 0.00 0.00 73 1021.2
20260905001545 74 201 2.0 4.0 0.00 0.00 0.00 74 1021.5
20260905000042 73 164 1.0 5.0 0.00 0.00 0.00 77 1021.8
20260904234544 72 112 1.0 4.0 0.00 0.00 0.00 79 1021.9
20260904233036 71 351 1.0 6.0 0.00 0.00 0.00 81 1022.2
20260904231529 70 152 1.0 6.0 0.00 0.00 0.00 84 1022.2
20260904230026 69 135 3.0 6.0 0.00 0.00 0.00 86 1022.3
20260904224523 68 144 1.0 5.0 0.00 0.00 0.00 88 1022.2
20260904223021 67 178 3.0 7.0 0.00 0.00 0.00 89 1022.3
20260904221518 67 132 2.0 8.0 0.00 0.00 0.00 90 1022.2
20260904204535 62 142 1.0 4.0 0.00 0.00 0.00 95 1021.6
20260904203041 62 164 1.0 3.0 0.00 0.00 0.00 95 1021.4
20260904201529 61 188 1.0 3.0 0.00 0.00 0.00 95 1021.4
20260904200128 61 152 0.0 2.0 0.00 0.00 0.00 95 1021.3
20260904194525 61 314 1.0 2.0 0.00 0.00 0.00 94 1021.2
20260904193028 61 188 0.0 2.0 0.00 0.00 0.00 94 1021.1
20260904191522 62 295 1.0 4.0 0.00 0.00 0.00 95 1021.0
20260904190023 62 314 0.0 2.0 0.00 0.00 0.00 94 1021.0
20260904184519 62 283 2.0 3.0 0.00 0.00 0.00 95 1021.0
20260904183116 62 293 1.0 3.0 0.00 0.00 0.00 95 1020.9
20260904181513 62 281 2.0 4.0 0.00 0.00 0.00 95 1020.9
20260904180015 62 295 2.0 3.0 0.00 0.00 0.00 95 1020.7
20260904174511 61 286 2.0 3.0 0.00 0.00 0.00 94 1020.8
20260904173008 62 300 1.0 3.0 0.00 0.00 0.00 95 1020.8
20260904171507 61 302 1.0 3.0 0.00 0.00 0.00 95 1020.8
20260904170008 61 240 0.0 3.0 0.00 0.00 0.00 94 1020.8
20260904164508 62 300 1.0 2.0 0.00 0.00 0.00 95 1020.8
20260904163003 61 314 1.0 3.0 0.00 0.00 0.00 95 1020.8
20260904161501 61 314 0.0 2.0 0.00 0.00 0.00 94 1020.8
20260904160100 62 314 1.0 2.0 0.00 0.00 0.00 94 1020.8
20260904154600 62 283 0.0 2.0 0.00 0.00 0.00 95 1020.8
20260904153058 62 302 1.0 3.0 0.00 0.00 0.00 94 1020.8
20260904151557 63 295 1.0 3.0 0.00 0.00 0.00 94 1020.8
20260904150053 62 283 1.0 3.0 0.00 0.00 0.00 94 1020.8
20260904144551 62 306 1.0 2.0 0.00 0.00 0.00 94 1020.8
20260904143047 63 314 1.0 3.0 0.00 0.00 0.00 94 1020.8
20260904141546 64 223 1.0 3.0 0.00 0.00 0.00 94 1020.8
20260904140059 63 283 0.0 2.0 0.00 0.00 0.00 93 1020.8
20260904134544 64 290 1.0 2.0 0.00 0.00 0.00 93 1020.8
20260904133046 64 321 1.0 3.0 0.00 0.00 0.00 93 1020.6
20260904131545 65 306 1.0 2.0 0.00 0.00 0.00 93 1020.6
20260904130050 65 269 0.0 2.0 0.00 0.00 0.00 93 1020.7
20260904124540 65 277 2.0 3.0 0.00 0.00 0.00 92 1020.7
20260904123038 66 321 1.0 2.0 0.00 0.00 0.00 92 1020.8
20260904121536 66 314 1.0 2.0 0.00 0.00 0.00 92 1020.8
20260904120035 67 240 0.0 3.0 0.00 0.00 0.00 91 1020.9
20260904114535 67 231 0.0 3.0 0.00 0.00 0.00 91 1020.9
20260904113036 68 197 2.0 5.0 0.00 0.00 0.00 90 1020.9
20260904111539 68 169 3.0 5.0 0.00 0.00 0.00 90 1020.7
20260904110031 68 159 2.0 5.0 0.00 0.00 0.00 90 1020.5
20260904104535 68 163 2.0 6.0 0.00 0.00 0.00 89 1020.3
20260904103030 68 193 1.0 3.0 0.00 0.00 0.00 87 1020.2
20260904101530 69 124 1.0 4.0 0.00 0.00 0.00 86 1020.1
20260904100028 69 169 1.0 2.0 0.00 0.00 0.00 85 1020.0
20260904094527 69 269 0.0 2.0 0.00 0.00 0.00 84 1019.8
20260904093027 69 344 0.0 2.0 0.00 0.00 0.00 84 1019.8
20260904091524 69 240 0.0 2.0 0.00 0.00 0.00 83 1019.6
20260904090033 70 302 0.0 2.0 0.00 0.00 0.00 82 1019.5
20260904084524 71 286 0.0 3.0 0.00 0.00 0.00 80 1019.5
20260904083022 71 331 1.0 4.0 0.00 0.00 0.00 79 1019.3
20260904081521 72 336 1.0 4.0 0.00 0.00 0.00 78 1019.2
20260904080020 72 342 2.0 5.0 0.00 0.00 0.00 77 1019.1
20260904074528 73 347 2.0 5.0 0.00 0.00 0.00 76 1018.8
20260904073018 74 279 1.0 3.0 0.00 0.00 0.00 74 1018.6
20260904071516 75 324 1.0 4.0 0.00 0.00 0.00 72 1018.5
20260904070016 76 1 2.0 6.0 0.00 0.00 0.00 69 1018.3
20260904064613 77 321 2.0 5.0 0.00 0.00 0.00 66 1018.3
20260904063011 78 329 1.0 5.0 0.00 0.00 0.00 63 1018.1
20260904061525 79 145 1.0 5.0 0.00 0.00 0.00 59 1017.9
20260904060008 80 28 2.0 7.0 0.00 0.00 0.00 54 1017.7
20260904054513 81 316 3.0 9.0 0.00 0.00 0.00 49 1017.5
20260904053004 83 353 3.0 7.0 0.00 0.00 0.00 50 1017.3
20260904051502 84 34 2.0 13.0 0.00 0.00 0.00 44 1017.3
20260904050003 87 1 2.0 7.0 0.00 0.00 0.00 39 1017.1
20260904044601 89 1 4.0 18.0 0.00 0.00 0.00 28 1017.0
20260904043050 89 1 4.0 12.0 0.00 0.00 0.00 28 1017.1
20260904041547 89 315 6.0 12.0 0.00 0.00 0.00 29 1017.3